This demonstration page uses our WeatherBlox Daily Observations layout. Learn more.

Left ArrowRight Arrow

Hourly Observations for December 14, 2021

Temp ( °F °C ) Dew Point ( °F °C ) Humidity (%) Winds ( mph kmh ) Pressure ( in mb ) Visibility ( mi km ) Precip ( " mm )
12:56 am 00:56 Clear 27 -2.8 24 -4.4 89 89 Calm 30.03 1017 10 16 0.00 0.00
1:56 am 01:56 Clear 27 -2.8 23 -5 85 85 Calm 30.01 1016 10 16 0.00 0.00
2:56 am 02:56 Clear 27 -2.8 23 -5 85 85 Calm 30.01 1016 10 16 0.00 0.00
3:56 am 03:56 Clear 27 -2.8 23 -5 85 85 NW 3 6 30.00 1016 10 16 0.00 0.00
4:56 am 04:56 Clear 27 -2.8 24 -4.4 89 89 NNW 3 6 30.01 1016 10 16 0.00 0.00
5:56 am 05:56 Clear 26 -3.3 23 -5 88 88 WNW 5 7 30.01 1016 10 16 0.00 0.00
6:56 am 06:56 Clear 26 -3.3 22 -5.6 84 84 Calm 30.04 1017 10 16 0.00 0.00
7:56 am 07:56 Sunny 24 -4.4 22 -5.6 91 91 NE 3 6 30.01 1016 10 16 0.00 0.00
8:56 am 08:56 Sunny 28 -2.2 26 -3.3 92 92 Calm 30.01 1016 10 16 0.00 0.00
9:56 am 09:56 Sunny 37 2.8 31 -0.6 79 79 WSW 3 6 29.99 1016 9 14 0.00 0.00
10:56 am 10:56 Sunny 43 6.1 31 -0.6 63 63 W 3 6 29.98 1015 10 16 0.00 0.00
11:56 am 11:56 Sunny 47 8.3 32 0 56 56 SSE 8 13 29.95 1014 10 16 0.00 0.00
12:56 pm 12:56 Sunny 51 10.6 32 0 48 48 SSE 10 17 29.90 1013 10 16 0.00 0.00
1:56 pm 13:56 Sunny 56 13.3 28 -2.2 34 34 SSE 10 17 29.86 1011 10 16 0.00 0.00
2:56 pm 14:56 Sunny 57 13.9 28 -2.2 33 33 S 13 20 29.85 1011 10 16 0.00 0.00
3:56 pm 15:56 Sunny 53 11.7 27 -2.8 37 37 SSE 12 19 29.84 1010 10 16 0.00 0.00
4:56 pm 16:56 Sunny 50 10 29 -1.7 44 44 SSE 13 20 29.83 1010 10 16 0.00 0.00
5:56 pm 17:56 Clear 46 7.8 32 0 58 58 SSE 9 15 29.83 1010 10 16 0.00 0.00
6:56 pm 18:56 Clear 43 6.1 33 0.6 68 68 S 8 13 29.83 1010 10 16 0.00 0.00
7:56 pm 19:56 Clear 40 4.4 34 1.1 79 79 S 8 13 29.82 1010 10 16 0.00 0.00
8:56 pm 20:56 Clear 41 5 36 2.2 82 82 SE 6 9 29.77 1008 10 16 0.00 0.00
9:56 pm 21:56 Clear 37 2.8 33 0.6 86 86 Calm 29.73 1007 10 16 0.00 0.00
10:56 pm 22:56 Clear 34 1.1 32 0 92 92 Calm 29.68 1005 10 16 0.00 0.00
11:56 pm 23:56 Clear 33 0.6 31 -0.6 92 92 S 6 9 29.65 1004 10 16 0.00 0.00

Powered by AerisWeather